Lid_Strength_Index
2 1 2 2 2 2 2 2 2 2 2 2 2 3 4 5 5 7 7 8 7 8 8 7 7 7 7 8 7 7 8 10 11 11 11 10 11 10 9 9 8 8 7
2 1 2 2 2 2 2 2 1 2 2 3 4 4 5 6 7 7 7 8 8 8 8 7 7 7 8 8 8 9 10 10 11 11 12 11 11 10 10 10 8 8 8
2 2 2 2 2 2 2 3 4 3 2 4 5 6 7 7 8 8 8 8 8 7 7 7 7 7 7 8 9 9 8 8 9 10 10 11 11 11 10 10 9 9 8
4 3 3 5 4 4 4 4 5 4 6 6 6 7 8 8 8 8 8 8 7 7 7 7 7 7 7 8 8 9 9 11 11 11 11 11 12 10 10 10 10 11 9
7 6 6 6 6 8 8 8 8 7 7 7 9 8 8 8 8 8 8 8 7 7 6 6 7 7 7 8 9 11 12 11 12 13 12 11 12 14 13 11 12 11 12
8 8 7 7 8 9 8 9 8 8 9 8 9 9 9 8 10 9 7 7 7 7 8 9 9 10 11 11 11 11 12 14 15 15 14 14 13 12 12 11 12 11 11
8 8 8 8 9 9 9 8 9 9 9 9 9 9 9 8 8 8 8 7 8 9 11 12 12 12 13 13 13 13 13 12 13 14 15 14 13 12 11 11 10 10 9
8 8 8 8 9 9 9 9 9 9 9 8 8 8 7 7 9 9 10 10 12 13 14 14 15 15 14 14 15 16 16 15 15 14 15 14 13 12 11 11 11 10 8
8 8 8 9 9 8 9 9 9 9 9 8 7 7 9 9 9 10 11 13 14 15 15 15 15 16 14 14 16 16 16 15 13 12 11 11 10 10 10 11 12 11 11
7 7 7 8 8 8 8 8 9 9 8 8 8 10 11 12 11 11 13 15 16 17 16 16 15 16 15 15 16 16 16 15 14 13 13 12 11 11 10 10 9 10 9
6 7 7 7 9 9 8 9 9 10 10 12 13 13 13 13 13 13 14 16 17 17 17 17 17 16 15 14 14 15 15 15 15 15 14 14 13 12 11 9 7 8 7
7 8 8 9 8 8 9 10 10 11 13 14 14 16 16 15 14 14 15 16 16 17 17 17 17 15 15 14 15 15 15 15 16 17 16 15 15 14 11 8 6 6 5
8 9 9 9 9 10 11 12 12 13 14 14 15 16 17 17 17 16 16 17 17 18 17 16 16 15 15 15 15 15 16 17 18 18 17 16 15 13 10 8 6 5 4
11 11 12 14 14 14 14 14 15 16 16 15 16 17 18 18 19 19 18 18 17 17 17 17 17 16 17 17 17 16 17 17 18 18 17 16 14 12 11 8 6 5 5
13 14 15 16 16 17 17 17 17 16 16 16 17 17 19 20 18 18 17 17 18 17 18 18 18 18 19 18 18 18 18 18 18 17 16 16 14 13 12 10 9 5 5
14 15 16 16 17 17 17 17 15 16 15 16 16 17 17 17 17 17 17 17 16 16 17 19 21 23 21 19 20 19 19 19 17 16 16 16 15 14 12 11 9 4 5
15 16 16 15 16 16 16 17 18 17 16 16 16 16 16 17 17 17 17 16 16 17 20 21 24 24 23 19 20 20 20 18 16 17 17 17 16 14 13 12 11 5 5
16 16 16 16 17 17 17 16 17 17 18 17 16 16 16 17 17 17 17 17 18 18 18 20 21 21 21 20 19 19 18 19 19 18 17 18 16 15 14 12 11 11 6
16 16 16 16 17 17 17 17 17 17 17 17 17 17 17 17 18 18 18 19 20 20 19 20 21 20 20 20 23 23 24 24 22 21 20 19 17 16 15 13 12 12 11
16 16 16 17 17 18 18 18 18 18 18 18 18 18 19 19 21 22 21 22 21 20 21 21 20 20 23 22 24 25 22 23 21 20 21 18 19 16 16 13 13 13 12
17 17 18 18 19 19 19 19 19 19 19 19 20 20 20 20 21 21 20 22 22 22 23 20 22 24 23 23 20 23 22 24 20 18 17 16 18 17 15 13 13 12 11
19 19 19 19 20 20 20 19 19 19 19 20 20 19 20 22 21 21 21 23 24 21 21 22 23 23 22 21 21 26 22 21 19 18 17 16 16 16 15 15 14 13 12
20 20 20 20 20 20 21 20 21 21 21 22 21 21 22 23 23 22 22 23 22 23 22 22 26 23 22 24 24 21 19 18 18 16 16 16 16 16 17 16 14 14 13
20 21 20 20 21 21 21 22 22 22 22 23 24 23 23 24 26 25 25 25 24 25 27 27 25 23 21 23 24 20 18 17 16 15 15 15 16 16 16 16 15 14 13
21 21 22 23 23 23 24 24 25 26 25 25 25 25 24 25 25 28 27 28 27 28 26 26 25 23 22 22 20 19 18 17 16 15 15 15 15 16 16 16 15 14 13
22 23 23 23 24 24 24 25 25 26 26 26 27 28 28 28 27 32 29 27 27 27 26 25 23 22 21 19 17 16 16 16 16 16 15 15 15 16 16 16 15 13 13